Pagrindinis puslapis
METAR-TAF:

METAR-TAF

Oro uostai :

Hemphill County Airport

Canadian, Teksasas, Jungtinės Amerikos Valstijos

platuma: 35-54N, ilguma: 100-24W, Aukštis: 730 m

Dabartinis oras

Ataskaita buvo paskelbta 16 minutes, ne 11:35 UTC
Vėjas 15 kt iš Šiaurės/Šiaurės Vakarų su gūsio iki 24 kt
Temperatūra 11°C
Drėgmė 37%
Slėgis 1014 hPa
Matomumas: 16.1 km
Giedras dangus

METAR: KHHF 281135Z AUTO 34015G24KT 10SM CLR 11/M03 A2994 RMK AO2 T01071028

Laikas: 06:51 (11:51 UTC)


TAF: trūkstamas

Orai ataskaitas ir orų prognozės (METAR, TAF).

turimą stotys yra geltonos ir raudonos taškus žemėlapyje.

Perkelti pele per norėdami pamatyti stoties vardą.

Tada spustelėkite, norėdami matyti oro stebėjimo ir prognozės.

Norėdami pakeisti žemėlapį: spustelėkite ant žalios mygtukų su juodo kryžiaus žemyn,; žalią mygtuką su brūkšneliu, jei norite nutolinti; arba žalių rodyklių gretimoms žemėlapius.


METAR-TAF: